TimeAKST,TemperatureF,Dew PointF,Humidity,Sea Level PressureIn,VisibilityMPH,Wind Direction,Wind SpeedMPH,Gust SpeedMPH,PrecipitationIn,Events,Conditions,WindDirDegrees,DateUTC
12:13 AM,30.2,28.4,93,29.56,8.0,Calm,Calm,-,0.00,Snow,Light Snow,0,2011-11-10 09:13:00
12:35 AM,30.2,28.4,93,29.55,10.0,North,3.5,-,0.00,Snow,Light Snow,10,2011-11-10 09:35:00
12:50 AM,30.2,28.4,93,29.55,9.0,NNW,6.9,-,0.00,,Overcast,330,2011-11-10 09:50:00
12:53 AM,30.9,28.0,89,29.55,9.0,NNW,6.9,-,0.00,,Overcast,340,2011-11-10 09:53:00
1:43 AM,30.2,26.6,86,29.54,10.0,NNW,3.5,-,N/A,,Overcast,340,2011-11-10 10:43:00
1:53 AM,30.0,27.0,88,29.53,10.0,North,4.6,-,N/A,,Overcast,360,2011-11-10 10:53:00
4:53 AM,30.0,26.1,85,29.46,10.0,NNE,5.8,-,N/A,,Partly Cloudy,20,2011-11-10 13:53:00
5:53 AM,30.9,26.1,82,29.45,10.0,North,4.6,-,N/A,,Overcast,10,2011-11-10 14:53:00
6:53 AM,30.0,25.0,82,29.44,10.0,North,10.4,-,N/A,,Mostly Cloudy,10,2011-11-10 15:53:00
7:53 AM,28.9,24.1,82,29.43,10.0,North,8.1,-,N/A,,Mostly Cloudy,350,2011-11-10 16:53:00
8:53 AM,30.9,24.1,76,29.41,10.0,North,15.0,21.9,N/A,,Mostly Cloudy,10,2011-11-10 17:53:00
9:53 AM,33.1,24.1,70,29.43,10.0,North,13.8,23.0,N/A,,Mostly Cloudy,360,2011-11-10 18:53:00
10:53 AM,33.1,19.9,59,29.48,10.0,NW,20.7,34.5,0.00,,Partly Cloudy,310,2011-11-10 19:53:00
11:37 AM,33.8,21.2,60,29.52,5.0,NW,19.6,33.4,0.00,Snow,Light Snow,310,2011-11-10 20:37:00
11:46 AM,32.0,21.2,64,29.52,1.8,NW,17.3,31.1,0.00,Snow,Light Snow,320,2011-11-10 20:46:00
11:53 AM,32.0,21.9,66,29.53,2.5,NNW,16.1,28.8,0.00,Snow,Light Snow,330,2011-11-10 20:53:00
12:01 PM,33.8,21.2,60,29.53,7.0,NW,15.0,26.5,0.00,Snow,Light Snow,320,2011-11-10 21:01:00
12:26 PM,32.0,23.0,69,29.54,1.8,NW,21.9,34.5,0.00,Snow,Light Snow,320,2011-11-10 21:26:00
12:37 PM,30.2,24.8,80,29.54,1.0,NW,21.9,32.2,0.00,Snow,Light Snow,320,2011-11-10 21:37:00
12:44 PM,30.2,24.8,80,29.54,0.8,NW,24.2,35.7,0.00,Snow,Light Snow,320,2011-11-10 21:44:00
12:51 PM,30.2,23.0,75,29.54,0.5,NW,23.0,36.8,0.00,Snow,Snow,310,2011-11-10 21:51:00
12:53 PM,30.9,23.0,72,29.54,0.8,NW,21.9,36.8,0.00,Snow,Light Snow,310,2011-11-10 21:53:00
1:01 PM,30.2,21.2,69,29.54,2.0,NW,21.9,32.2,0.00,Snow,Light Snow,310,2011-11-10 22:01:00
1:06 PM,30.2,21.2,69,29.54,4.0,WNW,15.0,31.1,0.00,Snow,Light Snow,300,2011-11-10 22:06:00
1:53 PM,34.0,19.9,56,29.55,10.0,NNW,17.3,31.1,0.00,,Partly Cloudy,330,2011-11-10 22:53:00
2:53 PM,36.0,17.1,46,29.59,10.0,North,20.7,31.1,N/A,,Scattered Clouds,350,2011-11-10 23:53:00
3:53 PM,34.0,16.0,48,29.62,10.0,NW,15.0,27.6,N/A,,Clear,310,2011-11-11 00:53:00
4:53 PM,33.1,16.0,50,29.65,10.0,NW,16.1,23.0,N/A,,Clear,320,2011-11-11 01:53:00
5:53 PM,33.1,14.0,46,29.68,10.0,NNW,11.5,23.0,N/A,,Clear,330,2011-11-11 02:53:00
6:53 PM,33.1,14.0,46,29.70,10.0,NW,11.5,20.7,N/A,,Clear,310,2011-11-11 03:53:00
7:53 PM,32.0,16.0,52,29.73,10.0,NNE,12.7,19.6,N/A,,Clear,20,2011-11-11 04:53:00
8:53 PM,33.1,15.1,48,29.73,10.0,NNE,12.7,20.7,N/A,,Clear,20,2011-11-11 05:53:00
9:53 PM,32.0,15.1,50,29.74,10.0,North,11.5,19.6,N/A,,Clear,10,2011-11-11 06:53:00
10:53 PM,33.1,15.1,48,29.75,10.0,North,15.0,21.9,N/A,,Clear,350,2011-11-11 07:53:00
11:53 PM,34.0,15.1,46,29.77,10.0,North,16.1,21.9,N/A,,Clear,360,2011-11-11 08:53:00